ホームページへジャンプ


OAA彗星課報告<1999年9月28日号>


● C/1999 S3(LINEAR)
リニア計画による新彗星が発見されました。
MPECに発表されたウイリアムスの軌道は次の通りです。
芸西の9月27日の観測ではm1=13.9 D=20"で速く進行しています。
位置は29日、芸西天文台通信に発表します。

C/1999 S3 (LINEAR)
  T =1999Nov.6.073 TT
  Peri.= 42.810
  Node = 12.476 2000.0
  Incl.= 71.679
  q = 1.92488 AU
  e = 1.0

 m1=10.20 + 5log(delta)+10.00log(r)

1999    R.A.(2000)Decl.   Delta   r    m1  Mot./PA  Elong.
00h00m   h  m      ゜ '                     '     ゜  ゜
Sept.29 01 01.16 +50 01.1 1.172 1.982 13.5 63.0/311 131.3
 Oct. 4 00 34.48 +53 15.3 1.162 1.968 13.5 61.7/303 130.8
 Oct. 9 00 03.80 +55 50.1 1.166 1.956 13.4 58.7/295 129.1
 Oct.14 23 30.58 +57 37.5 1.181 1.946 13.5 54.4/286 126.3
 Oct.19 22 57.03 +58 36.0 1.207 1.938 13.5 49.2/277 122.9
 Oct.24 22 25.45 +58 51.4 1.242 1.932 13.5 43.6/268 119.0



Copyright (C) 1999 Tsutomu Seki. (関勉)